Portada
METAR-TAF:

METAR-TAF

Aeroports :

Thimphu, Índia

latitud: 27-24-32N, longitud: 89-25-14E, altitud: 2235 m

Observació

L'informe es va fer fa 13 minuts, a les 05:00 UTC
Vent 2 kt amb direcció variable
Temperatura 17°C
Humitat 59%
Pressió 1023 hPa
Visibilitat 10 km o més
Núvols disperses a una alçada de 3000 ft
Cel ennuvolat a una alçada de 8000 ft

METAR: VQPR 210500Z VRB02KT 9999 SCT030 BKN080 17/09 Q1023

Hora: 11:13 (05:13 UTC)


TAF: manca

Observacions i pronòstics meteorològics de més de 4000 aeroports (METAR i TAF).

Les estacions disponibles són els punts grocs i vermells al mapa.

Posi el ratolí al punt desitjat per veure el nom de l'estació.

Feu clic per veure les observacions i els pronòstics meteorològics.

Per canviar el mapa: feu clic els botons verds amb una creu de color negre per apropar; al botó verd amb un guió per allunyar la imatge; o en les fletxes verdes per a mapes adjacents.


METAR-TAF: